FW6216 Weather Reports


Display with metric or nautical units.
time (UTC)temp
F
wind
direction
speed
MPH
gust
MPH
rain 1hr
in
rain 24hr
in
rain mn
in
humidity
%
barometer
mb
20260902183032 67 186 5.0 12.0 0.00 0.00 0.00 56 1009.9
20260902181532 66 209 4.0 12.0 0.00 0.00 0.00 61 1010.1
20260902180031 65 34 1.0 8.0 0.00 0.00 0.00 65 1010.3
20260902171530 64 360 1.0 5.0 0.00 0.00 0.00 69 1010.9
20260902170030 62 20 1.0 6.0 0.00 0.00 0.00 73 1011.1
20260902164641 61 352 2.0 6.0 0.00 0.00 0.00 74 1011.2
20260902163030 61 13 2.0 5.0 0.00 0.00 0.00 76 1011.3
20260902154534 55 78 0.0 3.0 0.00 0.00 0.00 85 1011.9
20260902153033 53 135 0.0 0.0 0.00 0.00 0.00 86 1012.1
20260902151531 52 127 0.0 0.0 0.00 0.00 0.00 87 1012.1
20260902150034 52 219 0.0 0.0 0.00 0.00 0.00 88 1012.3
20260902144531 51 247 0.0 0.0 0.00 0.00 0.00 89 1012.4
20260902143108 49 247 0.0 0.0 0.00 0.00 0.00 89 1012.4
20260902140106 47 232 1.0 3.0 0.00 0.00 0.00 89 1012.5
20260902134536 46 199 1.0 5.0 0.00 0.00 0.00 89 1012.5
20260902133038 47 157 2.0 4.0 0.00 0.00 0.00 89 1012.6
20260902131609 47 187 1.0 4.0 0.00 0.00 0.00 89 1012.7
20260902130033 47 243 2.0 4.0 0.00 0.00 0.00 89 1012.7
20260902124534 47 219 2.0 5.0 0.00 0.00 0.00 89 1012.8
20260902123033 47 178 2.0 4.0 0.00 0.00 0.00 89 1012.8
20260902121532 48 247 0.0 2.0 0.00 0.00 0.00 89 1012.8
20260902114531 47 183 0.0 3.0 0.00 0.00 0.00 88 1012.8
20260902113034 47 180 0.0 0.0 0.00 0.00 0.00 88 1012.9
20260902104535 48 180 0.0 4.0 0.00 0.00 0.00 85 1012.7
20260902103108 49 212 0.0 3.0 0.00 0.00 0.00 85 1012.7
20260902101530 50 228 0.0 3.0 0.00 0.00 0.00 85 1012.8
20260902100142 51 226 2.0 4.0 0.00 0.00 0.00 85 1012.9
20260902094531 50 203 0.0 3.0 0.00 0.00 0.00 85 1013.0
20260902093107 50 182 0.0 3.0 0.00 0.00 0.00 85 1012.9
20260902091532 50 214 1.0 5.0 0.00 0.00 0.00 85 1012.9
20260902090036 50 232 3.0 4.0 0.00 0.00 0.00 85 1013.0
20260902083035 51 225 0.0 2.0 0.00 0.00 0.00 83 1013.0
20260902081530 51 230 2.0 4.0 0.00 0.00 0.00 82 1012.9
20260902080032 52 157 0.0 1.0 0.00 0.00 0.00 82 1013.0
20260902073105 52 203 1.0 4.0 0.00 0.00 0.00 82 1013.3
20260902071531 52 182 3.0 6.0 0.00 0.00 0.00 81 1013.4
20260902064531 54 137 4.0 9.0 0.00 0.00 0.00 79 1013.4
20260902063143 55 153 3.0 8.0 0.00 0.00 0.00 77 1013.1
20260902061607 56 103 3.0 9.0 0.00 0.00 0.00 76 1013.3
20260902060032 56 83 5.0 8.0 0.00 0.00 0.00 75 1013.1
20260902054529 56 34 3.0 7.0 0.00 0.00 0.00 74 1013.0
20260902051531 57 10 0.0 4.0 0.00 0.00 0.00 70 1013.1
20260902050030 58 3 1.0 5.0 0.00 0.00 0.00 67 1012.8
20260902044535 58 343 3.0 7.0 0.00 0.00 0.00 67 1012.7
20260902043029 58 4 3.0 6.0 0.00 0.00 0.00 65 1012.6
20260902034607 60 331 4.0 8.0 0.00 0.00 0.00 61 1012.0
20260902030029 62 316 4.0 11.0 0.00 0.00 0.00 59 1011.3
20260902024643 62 318 5.0 15.0 0.00 0.00 0.00 58 1011.2
20260902023035 63 338 5.0 9.0 0.00 0.00 0.00 57 1011.2
20260902021537 63 352 5.0 13.0 0.00 0.00 0.00 57 1011.1
20260902020106 64 336 6.0 15.0 0.00 0.00 0.00 56 1010.7
20260902014537 65 328 7.0 16.0 0.00 0.00 0.00 55 1010.6
20260902011536 68 323 6.0 13.0 0.00 0.00 0.00 52 1010.2
20260902010029 69 328 8.0 18.0 0.00 0.00 0.00 51 1009.8
20260902004533 71 327 8.0 17.0 0.00 0.00 0.00 51 1009.7
20260902003030 71 333 9.0 18.0 0.00 0.00 0.00 51 1009.7
20260902001533 71 342 8.0 17.0 0.00 0.00 0.00 50 1009.7
20260902000029 72 342 9.0 17.0 0.00 0.00 0.00 51 1009.8
20260901234533 70 2 7.0 14.0 0.00 0.00 0.00 54 1010.0
20260901233106 71 18 6.0 13.0 0.00 0.00 0.00 55 1010.0
20260901231533 70 4 6.0 13.0 0.00 0.00 0.00 55 1010.2
20260901230106 71 1 6.0 13.0 0.00 0.00 0.00 54 1010.2
20260901224537 71 357 7.0 15.0 0.00 0.00 0.00 52 1010.1
20260901223031 73 356 8.0 15.0 0.00 0.00 0.00 49 1010.0
20260901221535 75 353 8.0 15.0 0.00 0.00 0.00 48 1009.8
20260901214532 76 5 7.0 16.0 0.00 0.00 0.00 48 1009.8
20260901213035 75 5 6.0 10.0 0.00 0.00 0.00 49 1009.9
20260901211533 75 20 6.0 13.0 0.00 0.00 0.00 49 1010.1
20260901210030 75 23 7.0 13.0 0.00 0.00 0.00 48 1010.2
20260901204531 76 32 7.0 14.0 0.00 0.00 0.00 47 1010.3
20260901201531 75 24 6.0 12.0 0.00 0.00 0.00 50 1010.6
20260901194533 74 25 5.0 10.0 0.00 0.00 0.00 50 1011.1
20260901193031 73 27 3.0 9.0 0.00 0.00 0.00 51 1011.3
20260901191609 72 19 3.0 7.0 0.00 0.00 0.00 52 1011.6
20260901190105 72 9 3.0 8.0 0.00 0.00 0.00 53 1011.7